Location: Isola Pescaroli
(45.0500°N, 10.1667°E)
Time: 01:40:56
(UTC+00:00)

SL-4 R/B - Pass Details

Date: 14 June 2021
Orbit: 428 x 662 km, 51.6° (Epoch: 29 July)

Event Time Altitude Azimuth Distance (km) Brightness Sun altitude
Exits shadow 02:03:03 - 276° (W) 2,142 4.7 -12.2°
Reaches altitude 10° 02:04:23 10° 283° (WNW) 1,637 4.2 -12.1°
Maximum altitude 02:07:42 32° 348° (NNW) 810 3.3 -11.7°
Drops below altitude 10° 02:10:53 10° 53° (NE) 1,559 5.7 -11.3°
Sets 02:13:06 0° 64° (ENE) 2,411 6.6 -11.1°
